Weather History for Seward, AK

Change the Weather History Date:

Monday, July 16, 2012

  Actual Average Record
Temperature  
Mean Temperature 55 °F -  
Max Temperature 64 °F 62 °F 78 °F (1996)
Min Temperature 46 °F 49 °F 42 °F (2002)
Degree Days  
Heating Degree Days 10    
Growing Degree Days 5 (Base 50)    
Moisture  
Dew Point 46 °F    
Average Humidity 77    
Maximum Humidity 100    
Minimum Humidity 50    
Precipitation  
Precipitation 0.00 in - - ()
Sea Level Pressure  
Sea Level Pressure 30.18 in    
Wind  
Wind Speed 2 mph (NNW)    
Max Wind Speed 10 mph    
Max Gust Speed 17 mph    
Visibility 10 miles    
Events      
Averages and records for this station are not official NWS values.
T = Trace of Precipitation, MM = Missing Value Source: NWS Daily Summary

Daily Weather History Graph

Daily Weather History Graph

Search for Another Location

Airport:

Trip Planner

Search our weather history database for the weather conditions in past years. The results will help you decide how hot, cold, wet, or windy it might be!

Date:

Astronomy

Jul. 16, 2012 Rise Set
Actual Time 5:03 AM AKDT 11:02 PM AKDT
Civil Twilight 3:46 AM AKDT 12:18 AM AKDT
Nautical Twilight Sun does not rise Sun does not rise
Astronomical Twilight Sun does not rise Sun does not rise
Moon 2:55 AM AKDT (7/16) 9:12 PM AKDT (7/16)
Length of Visible Light 20h 32m
Length of Day
17h 59m
Waning Crescent, 5% of the Moon is Illuminated
Jul 16
Waning Crescent
Jul 18
New
Jul 26
First Quarter
Aug 1
Full
Aug 9
Last Quarter

Hourly Weather History & Observations

Time (AKDT) Temp. Dew Point Humidity Pressure Visibility Wind Dir Wind Speed Gust Speed Precip Events Conditions
12:00 AM 48.2 °F 48.2 °F 100% 30.13 in 10.0 mi Calm Calm - N/A   Overcast
12:53 AM 48.9 °F 46.9 °F 93% 30.14 in 10.0 mi Calm Calm - N/A   Overcast
1:53 AM 48.0 °F 46.9 °F 96% 30.16 in 10.0 mi Calm Calm - N/A   Overcast
2:38 AM 46.4 °F 46.4 °F 100% 30.16 in 10.0 mi Calm Calm - N/A   Overcast
2:53 AM 48.0 °F 46.0 °F 93% 30.16 in 10.0 mi Calm Calm - N/A   Overcast
3:02 AM 46.4 °F 44.6 °F 93% 30.16 in 10.0 mi Calm Calm - N/A   Overcast
3:53 AM 46.9 °F 46.0 °F 97% 30.17 in 10.0 mi Calm Calm - N/A   Overcast
4:53 AM 46.9 °F 45.0 °F 93% 30.18 in 10.0 mi Calm Calm - N/A   Mostly Cloudy
5:53 AM 46.0 °F 44.1 °F 93% 30.19 in 10.0 mi Calm Calm - N/A   Overcast
6:53 AM 46.9 °F 46.0 °F 97% 30.21 in 10.0 mi Calm Calm - N/A   Mostly Cloudy
7:53 AM 51.1 °F 46.9 °F 86% 30.21 in 10.0 mi Calm Calm - N/A   Mostly Cloudy
8:53 AM 55.9 °F 46.9 °F 72% 30.20 in 10.0 mi NNE 6.9 mph - N/A   Clear
9:53 AM 57.0 °F 46.9 °F 69% 30.21 in 10.0 mi North 9.2 mph - N/A   Clear
10:53 AM 57.9 °F 46.0 °F 65% 30.20 in 10.0 mi NNE 5.8 mph - N/A   Overcast
11:53 AM 61.0 °F 45.0 °F 56% 30.20 in 10.0 mi NNW 8.1 mph - N/A   Overcast
12:53 PM 62.1 °F 44.1 °F 52% 30.20 in 10.0 mi North 9.2 mph - N/A   Overcast
1:53 PM 62.1 °F 45.0 °F 53% 30.19 in 10.0 mi NW 9.2 mph 17.3 mph N/A   Overcast
2:53 PM 63.0 °F 45.0 °F 52% 30.19 in 10.0 mi NW 9.2 mph - N/A   Overcast
3:53 PM 63.0 °F 44.1 °F 50% 30.19 in 10.0 mi WNW 10.4 mph - N/A   Overcast
4:53 PM 63.0 °F 45.0 °F 52% 30.19 in 10.0 mi NW 6.9 mph - N/A   Overcast
5:53 PM 64.0 °F 45.0 °F 50% 30.18 in 10.0 mi WNW 6.9 mph - N/A   Overcast
6:53 PM 64.0 °F 46.0 °F 52% 30.17 in 10.0 mi NW 5.8 mph - N/A   Overcast
7:53 PM 57.9 °F 50.0 °F 75% 30.16 in 10.0 mi Calm Calm - N/A   Overcast
8:53 PM 55.9 °F 50.0 °F 80% 30.17 in 10.0 mi SSE 3.5 mph - N/A   Overcast
9:53 PM 55.0 °F 50.0 °F 83% 30.16 in 10.0 mi Calm Calm - N/A   Mostly Cloudy
10:53 PM 54.0 °F 50.0 °F 86% 30.16 in 10.0 mi Calm Calm - N/A   Overcast
11:53 PM 52.0 °F 48.9 °F 89% 30.16 in 10.0 mi Calm Calm - N/A   Overcast